星链-37957(STARLINK-37957)

导读

STARLINK-37957(NORAD编号69685)是SpaceX星链巨型低轨通信星座的组网卫星,由猎鹰9号火箭发射入轨,当前处于在轨运行状态。作为星链V2系列量产卫星,它采用平板构型搭载氪工质霍尔推进器,支持Ku/Ka波段通信与光学星间链路,具备自主避撞能力,设计寿命5-7年,主要参与构建覆盖全球的低轨宽带互联网系统,为地面用户提供高速网络接入服务,寿命末期将主动离轨并在大气层中完全烧毁,避免产生太空碎片。

Basic Information
目录编号:
69685
目录名称:
STARLINK-37957
国际标识:
2026-145J
轨道中心:
EARTH
卫星名称:
星链-37957
卫星全名:
星链-37957(STARLINK-37957)
卫星状态:
在轨 (已飞行71 天)
发射日期:
2026-06-25 UTC
国别 :
美国 (US)
星等 :
--
Orbit Information
数据来源 国际轨道数据 AOE轨道数据
星历时间 2026-09-03T11:38:01+0800
1天前
查看轨道信息
2026-09-03T23:00:00+0800
13小时前
查看轨道信息
半长轴 6843.673km 6843.683km
偏心率 0.0001336 0.0001397
轨道倾角 97.285° 97.285°
近地点辐角 94.374° 98.865°
升交点赤经 93.049° 93.517°
平近点角 265.765° 354.023°
近地点 464.621km 464.589km
远地点 466.451km 466.503km
周期 93.906分钟 93.906分钟
每日圈数 15.334476 15.334441
Detailed Information
固有亮度:
5
最大亮度:
2.5
卫星平台:
Starlink V1.0
覆盖范围:
全球
运营商:
太空探索技术公司
运营商所在国:
美国
制造商(研发单位):
太空探索技术公司
制造商所在国:
美国
使用方式:
暂无
Satellite Introduction
Starlink 计划是 SpaceX 推出的全球卫星互联网项目,通过发射低轨道卫星,为全球尤其是偏远地区提供高速、低延迟的互联网服务。自 2019 年起,Starlink 已部署数千颗卫星,旨在缩小全球数字鸿沟,推动互联网普及。该项目还为军事、航空等行业提供通信支持,带来广泛经济效益。
2D Orbit Map
3D Orbit Map
Orbit Altitude Analysis Chart
Orbit Inclination Analysis Chart
Orbit Comprehensive Analysis Chart
View Comprehensive Chart
Conjunction Data List
Event ID Objects TCA Miss Dist (km) Collision Risk Probability Collision Risk Index (CRI) Action
CDM_260905-083006-831106-968521
2026-09-05T
08:30:58+0000
1.536 km
极远距离
4.715175E-6 低风险 0.48
CDM_260903-170205-197206-968521
2026-09-03T
17:02:41+0000
2.691 km
极远距离
1.542816E-6 低风险 0.39